Weather History for Ingleside, TX

Change the Weather History Date:

Friday, May 24, 2013

  Actual Average Record
Temperature  
Mean Temperature 83 °F -  
Max Temperature 87 °F - - ()
Min Temperature 79 °F - - ()
Cooling Degree Days 18    
Growing Degree Days 33 (Base 50)    
Moisture  
Dew Point 75 °F    
Average Humidity 79    
Maximum Humidity 91    
Minimum Humidity 62    
Precipitation  
Precipitation 0.00 in - - ()
Sea Level Pressure  
Sea Level Pressure 30.02 in    
Wind  
Wind Speed 13 mph (SE)    
Max Wind Speed 23 mph    
Max Gust Speed 28 mph    
Visibility 10 miles    
Events Thunderstorm    
T = Trace of Precipitation, MM = Missing Value Source: NWS Daily Summary

Daily Weather History Graph

Daily Weather History Graph

Search for Another Location

Airport:

Trip Planner

Search our weather history database for the weather conditions in past years. The results will help you decide how hot, cold, wet, or windy it might be!

Date:

Astronomy

May. 24, 2013 Rise Set
Actual Time 6:35 AM CDT 8:16 PM CDT
Civil Twilight 6:09 AM CDT 8:42 PM CDT
Nautical Twilight 5:37 AM CDT 9:13 PM CDT
Astronomical Twilight 5:05 AM CDT 9:46 PM CDT
Moon 8:02 PM CDT (5/24) 6:04 AM CDT (5/24)
Length of Visible Light 14h 33m
Length of Day
13h 41m
Full, 100% of the Moon is Illuminated
May 24
Full
May 24
Full
May 31
Last Quarter
Jun 8
New
Jun 16
First Quarter

Hourly Weather History & Observations

Time (CDT) Temp. Heat Index Dew Point Humidity Pressure Visibility Wind Dir Wind Speed Gust Speed Precip Events Conditions
12:15 AM 80.1 °F 86.0 °F 77.2 °F 91% 30.00 in 10.0 mi East 9.2 mph - N/A   Scattered Clouds
12:35 AM 80.1 °F 86.0 °F 77.2 °F 91% 30.00 in 10.0 mi East 11.5 mph 17.3 mph N/A   Mostly Cloudy
12:55 AM 80.4 °F 86.8 °F 77.2 °F 90% 30.00 in 10.0 mi ESE 10.4 mph - N/A   Overcast
1:15 AM 80.6 °F 87.1 °F 77.2 °F 89% 29.99 in 10.0 mi East 12.7 mph 18.4 mph N/A   Overcast
1:35 AM 80.2 °F 86.3 °F 77.2 °F 90% 29.98 in 10.0 mi ESE 12.7 mph 20.7 mph N/A   Mostly Cloudy
1:55 AM 80.6 °F 87.1 °F 77.2 °F 89% 29.99 in 10.0 mi ESE 11.5 mph 19.6 mph N/A   Mostly Cloudy
2:15 AM 80.6 °F 87.3 °F 77.4 °F 90% 29.98 in 10.0 mi ESE 12.7 mph 17.3 mph N/A   Overcast
2:35 AM 80.6 °F 87.1 °F 77.2 °F 89% 29.97 in 10.0 mi ESE 15.0 mph - N/A   Mostly Cloudy
2:55 AM 80.6 °F 87.1 °F 77.2 °F 89% 29.98 in 10.0 mi ESE 12.7 mph 20.7 mph N/A   Overcast
3:15 AM 80.6 °F 87.3 °F 77.4 °F 90% 29.97 in 10.0 mi East 11.5 mph 16.1 mph N/A   Overcast
3:35 AM 80.6 °F 87.3 °F 77.4 °F 90% 29.97 in 10.0 mi East 12.7 mph - N/A   Overcast
3:55 AM 80.6 °F 87.1 °F 77.2 °F 89% 29.97 in 10.0 mi East 12.7 mph 19.6 mph N/A   Overcast
4:15 AM 80.4 °F 86.8 °F 77.2 °F 90% 29.97 in 10.0 mi ESE 15.0 mph - N/A   Mostly Cloudy
4:35 AM 80.2 °F 86.3 °F 77.0 °F 90% 29.98 in 10.0 mi ESE 11.5 mph 17.3 mph N/A   Overcast
4:55 AM 80.2 °F 86.1 °F 76.6 °F 89% 29.98 in 10.0 mi East 10.4 mph 16.1 mph N/A   Overcast
5:15 AM 80.4 °F 86.3 °F 76.3 °F 87% 29.97 in 10.0 mi ESE 15.0 mph 19.6 mph N/A   Overcast
5:35 AM 80.1 °F 85.5 °F 76.1 °F 88% 29.97 in 10.0 mi SE 10.4 mph 13.8 mph N/A   Scattered Clouds
5:55 AM 79.7 °F - 75.9 °F 88% 29.99 in 10.0 mi SE 9.2 mph - N/A   Scattered Clouds
6:15 AM 79.9 °F - 76.1 °F 88% 29.99 in 10.0 mi ESE 10.4 mph - N/A   Overcast
6:35 AM 80.2 °F 85.8 °F 75.9 °F 87% 29.99 in 10.0 mi SE 10.4 mph 18.4 mph N/A   Overcast
6:55 AM 80.2 °F 85.7 °F 75.6 °F 86% 29.99 in 10.0 mi SE 13.8 mph - N/A   Mostly Cloudy
7:15 AM 80.1 °F 85.4 °F 75.9 °F 87% 30.00 in 10.0 mi ESE 11.5 mph - N/A   Scattered Clouds
7:35 AM 80.6 °F 86.6 °F 76.1 °F 86% 30.00 in 10.0 mi SE 11.5 mph 18.4 mph N/A   Scattered Clouds
7:55 AM 81.3 °F 88.0 °F 76.1 °F 84% 30.00 in 10.0 mi SE 15.0 mph - N/A   Scattered Clouds
8:15 AM 82.2 °F 89.1 °F 75.0 °F 79% 30.00 in 10.0 mi SSE 16.1 mph 21.9 mph N/A   Clear
8:35 AM 82.9 °F 89.7 °F 74.5 °F 75% 30.02 in 10.0 mi SE 15.0 mph 21.9 mph N/A   Scattered Clouds
8:55 AM 83.5 °F 90.3 °F 74.1 °F 73% 30.04 in 10.0 mi SE 18.4 mph 24.2 mph N/A   Scattered Clouds
9:15 AM 83.8 °F 90.8 °F 73.8 °F 72% 30.06 in 10.0 mi SSE 16.1 mph 25.3 mph N/A   Mostly Cloudy
9:35 AM 83.1 °F 89.5 °F 73.6 °F 73% 30.07 in 10.0 mi SE 19.6 mph 23.0 mph N/A   Overcast
9:55 AM 84.2 °F 91.2 °F 73.9 °F 71% 30.08 in 10.0 mi SSE 15.0 mph - N/A   Overcast
10:15 AM 84.9 °F 91.4 °F 73.0 °F 67% 30.09 in 10.0 mi SSE 16.1 mph 21.9 mph N/A   Mostly Cloudy
10:35 AM 85.3 °F 92.2 °F 73.0 °F 67% 30.09 in 10.0 mi SSE 15.0 mph 21.9 mph N/A   Overcast
10:55 AM 85.6 °F 93.0 °F 73.4 °F 67% 30.09 in 10.0 mi SSE 15.0 mph 19.6 mph N/A   Overcast
11:15 AM 86.9 °F 94.5 °F 73.4 °F 64% 30.08 in 10.0 mi SE 18.4 mph 24.2 mph N/A   Mostly Cloudy
11:35 AM 87.1 °F 94.5 °F 73.2 °F 63% 30.08 in 10.0 mi SE 16.1 mph 23.0 mph N/A   Mostly Cloudy
11:55 AM 85.5 °F 92.6 °F 73.2 °F 67% 30.08 in 10.0 mi SE 12.7 mph - N/A   Overcast
12:15 PM 85.8 °F 93.0 °F 73.4 °F 66% 30.08 in 10.0 mi SE 15.0 mph 20.7 mph N/A   Overcast
12:35 PM 87.1 °F 94.5 °F 73.0 °F 63% 30.07 in 10.0 mi SE 17.3 mph 20.7 mph N/A   Scattered Clouds
12:55 PM 86.9 °F 93.7 °F 72.7 °F 62% 30.06 in 10.0 mi SSE 17.3 mph 21.9 mph N/A   Scattered Clouds
1:15 PM 86.5 °F 93.8 °F 73.2 °F 64% 30.05 in 10.0 mi SE 15.0 mph 21.9 mph N/A   Scattered Clouds
1:35 PM 87.3 °F 94.9 °F 73.4 °F 63% 30.04 in 10.0 mi ESE 18.4 mph - N/A   Mostly Cloudy
1:55 PM 87.3 °F 94.9 °F 73.2 °F 63% 30.03 in 10.0 mi SE 20.7 mph 24.2 mph N/A   Scattered Clouds
2:15 PM 87.4 °F 95.3 °F 73.2 °F 63% 30.02 in 10.0 mi ESE 18.4 mph 26.5 mph N/A   Scattered Clouds
2:35 PM 86.5 °F 94.2 °F 73.6 °F 65% 30.03 in 10.0 mi SE 20.7 mph 27.6 mph N/A   Mostly Cloudy
2:55 PM 87.6 °F 96.2 °F 73.9 °F 64% 30.03 in 10.0 mi SE 17.3 mph 26.5 mph N/A   Mostly Cloudy
3:15 PM 87.8 °F 96.1 °F 73.9 °F 63% 30.02 in 10.0 mi SE 18.4 mph 24.2 mph N/A   Mostly Cloudy
3:35 PM 87.1 °F 94.9 °F 73.8 °F 64% 30.02 in 10.0 mi SE 19.6 mph - N/A   Mostly Cloudy
3:55 PM 86.4 °F 94.2 °F 73.9 °F 66% 30.03 in 10.0 mi SE 16.1 mph 21.9 mph N/A   Mostly Cloudy
4:15 PM 85.5 °F 93.4 °F 74.1 °F 69% 30.03 in 10.0 mi ESE 16.1 mph 19.6 mph N/A   Mostly Cloudy
4:35 PM 84.6 °F 92.1 °F 74.3 °F 71% 30.03 in 10.0 mi SE 12.7 mph 19.6 mph N/A   Mostly Cloudy
4:55 PM 83.7 °F 90.7 °F 74.3 °F 73% 30.03 in 10.0 mi SE 12.7 mph 17.3 mph N/A   Mostly Cloudy
5:15 PM 82.8 °F 89.2 °F 74.3 °F 75% 30.04 in 10.0 mi ESE 13.8 mph - N/A Thunderstorm Mostly Cloudy
5:35 PM 82.4 °F 89.0 °F 74.5 °F 77% 30.04 in 10.0 mi ESE 11.5 mph - N/A   Mostly Cloudy
5:55 PM 81.9 °F 88.0 °F 74.5 °F 78% 30.04 in 10.0 mi ESE 11.5 mph - N/A   Mostly Cloudy
6:15 PM 81.9 °F 88.0 °F 74.5 °F 78% 30.04 in 10.0 mi SE 8.1 mph - N/A   Mostly Cloudy
6:35 PM 81.9 °F 88.2 °F 74.8 °F 79% 30.04 in 10.0 mi SE 10.4 mph - N/A   Mostly Cloudy
6:55 PM 81.9 °F 88.2 °F 74.7 °F 79% 30.04 in 10.0 mi SE 8.1 mph - N/A   Scattered Clouds
7:15 PM 81.9 °F 88.5 °F 75.0 °F 80% 30.03 in 10.0 mi SE 10.4 mph - N/A   Scattered Clouds
7:35 PM 81.5 °F 87.8 °F 75.2 °F 81% 30.03 in 10.0 mi SSE 8.1 mph - N/A   Mostly Cloudy
7:55 PM 81.5 °F 87.8 °F 75.2 °F 81% 30.03 in 10.0 mi SE 6.9 mph - N/A   Mostly Cloudy
8:15 PM 81.0 °F 87.1 °F 75.7 °F 84% 30.02 in 10.0 mi SE 9.2 mph - N/A   Scattered Clouds
8:35 PM 80.6 °F 86.6 °F 76.1 °F 86% 30.01 in 10.0 mi North - - N/A   Clear
8:55 PM 80.6 °F 86.4 °F 75.7 °F 85% 30.01 in 10.0 mi North - - N/A   Clear
9:15 PM 80.8 °F 87.1 °F 76.1 °F 86% 30.02 in 10.0 mi SE 12.7 mph - N/A   Scattered Clouds
9:35 PM 80.8 °F 87.1 °F 76.3 °F 86% 30.01 in 10.0 mi ESE 17.3 mph 20.7 mph N/A   Scattered Clouds
9:55 PM 80.8 °F 87.1 °F 76.3 °F 86% 30.01 in 10.0 mi ESE 16.1 mph 19.6 mph N/A   Scattered Clouds
10:15 PM 80.6 °F 86.8 °F 76.5 °F 87% 30.01 in 10.0 mi ESE 17.3 mph 24.2 mph N/A   Scattered Clouds
10:35 PM 80.6 °F 86.8 °F 76.5 °F 87% 30.02 in 10.0 mi ESE 16.1 mph 21.9 mph N/A   Clear
10:55 PM 80.6 °F 86.9 °F 76.6 °F 88% 30.02 in 10.0 mi ESE 17.3 mph 25.3 mph N/A   Scattered Clouds
11:15 PM 80.6 °F 86.9 °F 76.6 °F 88% 30.03 in 10.0 mi ESE 23.0 mph 26.5 mph N/A   Scattered Clouds
11:35 PM 80.6 °F 86.9 °F 76.6 °F 88% 30.04 in 10.0 mi ESE 19.6 mph 26.5 mph N/A   Scattered Clouds
11:55 PM 80.8 °F 87.2 °F 76.6 °F 87% 30.04 in 10.0 mi ESE 20.7 mph 27.6 mph N/A   Scattered Clouds